Regional Weather Roundup
Issued by NWS

Home | Current Version | Previous Version | Graphics & Text | Print | Product List | Glossary On
Versions: 1 2 3 4 5 6 7 8 9 10 11 12 13 14 15 16 17 18 19 20 21 22 23 24 25 26 27 28 29 30 31 32 33 34 35 36 37 38 39 40 41 42 43 44 45 46 47 48 49 50
000
ASUS43 KTOP 032008
RWRKS

WEATHER ROUNDUP FOR KANSAS
NATIONAL WEATHER SERVICE GOODLAND KS
300 PM CDT FRI JUL 03 2015

NOTE:  "FAIR" INDICATES FEW OR NO CLOUDS BELOW 12,000 FEET WITH NO
SIGNIFICANT WEATHER AND/OR OBSTRUCTIONS TO VISIBILITY.

KSZ001>006-013>018-027>032-041>047-032100-
NORTHWEST KANSAS

CITY           SKY/WX    TMP DP  RH WIND       PRES   REMARKS
GOODLAND       MOSUNNY   85  55  35 SW5       30.06F
HAYS           MOSUNNY   82  61  47 N12G17    30.01F
HILL CITY      MOSUNNY   85  60  42 MISG      30.03F
RUSSELL        SUNNY     84  59  42 NE15G21   29.98F
$$

KSZ061>065-074>080-084>089-032100-
SOUTHWEST KANSAS

CITY           SKY/WX    TMP DP  RH WIND       PRES   REMARKS
DODGE CITY     SUNNY     84  57  39 VRB3      30.02F
ELKHART          N/A     91  58  32 E6          N/A
GARDEN CITY    MOSUNNY   85  57  38 CALM      30.02F
GREAT BEND     MOSUNNY   81  63  54 N12G18    30.00F
LIBERAL        MOSUNNY   90  63  40 S5        30.03F
PRATT          SUNNY     84  57  39 NE14      30.01S
$$

KSZ066>073-081>083-090>101-032100-
SOUTHEAST KANSAS

CITY           SKY/WX    TMP DP  RH WIND       PRES   REMARKS
CHANUTE        PTSUNNY   81  69  67 N12       29.92S
COFFEYVILLE    MOSUNNY   87  65  47 NW10G18   29.88F
HUTCHINSON     MOSUNNY   83  63  50 N12G18    29.97F
MEDICINE LODGE   N/A     88  61  40 NE15G22   29.96S
NEWTON         PTSUNNY   79  63  57 NE12      29.99F
PARSONS        PTSUNNY   84  70  62 N10       29.91S
WICHITA INTL   PTSUNNY   85  64  49 N13       29.94F
WICHITA JABRA  PTSUNNY   81  65  58 N14       29.95F
WICHITA MCCONL MOSUNNY   82  65  55 N8G21     29.95F
WINFIELD       SUNNY     87  63  44 N12G24    29.94F
$$

KSZ007>012-019>026-033>040-048>060-102>105-032100-
NORTHEAST KANSAS

CITY           SKY/WX    TMP DP  RH WIND       PRES   REMARKS
CONCORDIA      PTSUNNY   80  64  58 NE9       30.00F
EMPORIA        CLOUDY    76  66  71 N13       29.96F
LAWRENCE       SUNNY     80  58  46 N9        29.96F
MANHATTAN      PTSUNNY   81  65  58 N8        29.97F
MARYSVILLE     MOSUNNY   79  59  50 NE7       29.98F
OLATHE IND     MOSUNNY   80  63  55 N10       29.96F
OLATHE EXE     MOSUNNY   79  59  50 N13       29.95F
SALINA         MOSUNNY   85  63  47 NE12      29.98F
TOPEKA BILLARD MOSUNNY   80  64  58 NE8       29.96F
TOPEKA FORBES  MOSUNNY   80  64  58 NE7       29.96F
$$


USA.gov is the U.S. government's official web portal to all federal, state and local government web resources and services.